DW1901 Weather Reports


time (UTC)temp
C
wind
direction
speed
KPH
gust
KPH
rain 1hr
cm
rain 24hr
cm
rain mn
cm
humidity
%
barometer
mb
20260504081824 6 360 0.0 0.0 0.00 0.00 0.00 74 1012.7
20260504070224 6 360 0.0 0.0 0.00 0.00 0.00 73 1012.3
20260504044924 6 360 0.0 0.0 0.00 0.00 0.00 75 1012.2
20260504043024 6 360 0.0 0.0 0.00 0.00 0.00 73 1012.0
20260504041124 6 360 0.0 0.0 0.00 0.00 0.00 72 1011.8
20260504035620 6 360 0.0 0.0 0.00 0.08 0.00 70 1011.7
20260504033740 6 360 0.0 0.0 0.00 0.08 0.00 68 1011.7
20260504031820 7 360 0.0 0.0 0.00 0.08 0.00 67 1011.7
20260504025920 7 360 0.0 0.0 0.00 0.08 0.00 65 1011.7
20260504024020 8 360 0.0 0.0 0.00 0.08 0.00 61 1011.7
20260504022120 8 360 0.0 0.0 0.00 0.08 0.00 59 1011.7
20260504020220 9 360 0.0 0.0 0.00 0.08 0.00 56 1011.7
20260504014320 10 360 0.0 0.0 0.00 0.08 0.00 53 1011.5
20260504012420 11 360 0.0 0.0 0.00 0.08 0.00 50 1011.4
20260504010520 11 360 0.0 0.0 0.00 0.08 0.00 46 1011.2
20260504004700 12 360 0.0 0.0 0.00 0.08 0.00 43 1010.9
20260504002720 13 360 0.0 3.2 0.00 0.08 0.00 40 1010.7
20260504000820 14 360 0.0 3.2 0.00 0.08 0.00 35 1010.4
20260503235000 15 360 0.0 3.2 0.00 0.08 0.00 33 1010.2
20260503233020 15 360 3.2 3.2 0.00 0.08 0.00 31 1009.9
20260503231140 15 360 4.8 8.0 0.00 0.08 0.00 29 1009.7
20260503225220 15 360 6.4 16.1 0.00 0.08 0.00 29 1009.6
20260503223320 15 360 6.4 9.7 0.00 0.08 0.00 29 1009.5
20260503221420 15 360 16.1 19.3 0.00 0.08 0.00 28 1009.5
20260503215520 15 360 6.4 19.3 0.00 0.08 0.00 28 1009.6
20260503213620 15 360 16.1 16.1 0.00 0.08 0.00 29 1009.5
20260503211720 15 360 11.3 22.5 0.00 0.08 0.00 28 1009.4
20260503205820 15 360 16.1 20.9 0.00 0.08 0.00 29 1009.5
20260503203920 15 360 4.8 16.1 0.00 0.08 0.00 29 1009.5
20260503202020 14 360 4.8 25.7 0.00 0.08 0.00 30 1009.5
20260503200120 15 360 24.1 24.1 0.00 0.08 0.00 32 1009.7
20260503194220 14 360 3.2 17.7 0.00 0.08 0.00 33 1009.7
20260503192320 13 360 9.7 22.5 0.00 0.08 0.00 32 1010.0
20260503190423 13 360 12.9 16.1 0.00 0.08 0.00 34 1010.2
20260503184520 12 360 16.1 17.7 0.00 0.08 0.00 36 1010.4
20260503182620 12 360 8.0 29.0 0.00 0.08 0.00 36 1010.5
20260503180720 12 360 6.4 29.0 0.00 0.08 0.00 37 1010.5
20260503174840 11 360 6.4 25.7 0.00 0.08 0.00 39 1010.7
20260503172919 11 360 11.3 27.4 0.00 0.08 0.00 40 1010.8
20260503171019 11 360 8.0 27.4 0.00 0.08 0.00 37 1011.0
20260503130319 8 360 11.3 11.3 0.00 0.08 0.00 54 1011.3